Retour au catalogue

GALAXY 34

ActifCommunicationsGEO
NORAD 54027·PAYLOAD·🇺🇸 United States

Lancé Oct 8, 2022 depuis Cape Canaveral Space Force Station

Loading…

TLE

FraisSource: CelesTrak SupGP

Époque: Sep 14, 2026, 00:00 UTC

1 54027C 22128B   26257.00000000  .00000160  00000+0  00000+0 0  2577
2 54027   0.0060 213.8590 0001467 304.9379  65.1876  1.00272027    12

Suivez GALAXY 34 en temps réel avec AllMySat

Download on the App Store